This is the latest recevied weather packets stored in our database for station/object DL1SEW-6. If no packets are shown the sender has not sent any weather packets the latest 10 day(s).
| Time | Temp. | Humidity | Pressure | Rain* | Wind** | Luminosity | Snow |
|---|---|---|---|---|---|---|---|
| 1788160210 | 65° F | 76% | 762.9 mmHg | 0 in | - | 447 W/m² | - |
| 1788159312 | 64° F | 78% | 762.7 mmHg | 0 in | - | 344 W/m² | - |
| 1788158411 | 63° F | 82% | 762.6 mmHg | 0 in | - | 329 W/m² | - |
| 1788157510 | 61° F | 85% | 762.4 mmHg | 0 in | - | 272 W/m² | - |
| 1788156610 | 61° F | 87% | 762.4 mmHg | 0 in | - | 142 W/m² | - |
| 1788155711 | 61° F | 87% | 762.4 mmHg | 0 in | - | 46 W/m² | - |
| 1788154810 | 61° F | 88% | 762.3 mmHg | 0 in | - | 19 W/m² | - |
| 1788153910 | 61° F | 88% | 762.3 mmHg | 0 in | - | 11 W/m² | - |
| 1788153011 | 61° F | 87% | 762.1 mmHg | 0 in | - | 10 W/m² | - |
| 1788152109 | 61° F | 87% | 762.1 mmHg | 0 in | - | 7 W/m² | - |
| 1788151209 | 61° F | 87% | 762.1 mmHg | 0 in | - | 0 W/m² | - |
| 1788150309 | 61° F | 87% | 761.9 mmHg | 0 in | - | 0 W/m² | - |
| 1788149409 | 61° F | 88% | 761.8 mmHg | 0 in | - | 0 W/m² | - |
| 1788148513 | 60° F | 88% | 761.7 mmHg | 0 in | - | 0 W/m² | - |
| 1788147613 | 60° F | 88% | 761.7 mmHg | 0 in | - | 0 W/m² | - |
| 1788146715 | 60° F | 87% | 761.7 mmHg | 0 in | - | 0 W/m² | - |
| 1788145813 | 60° F | 86% | 761.6 mmHg | 0 in | - | 0 W/m² | - |
| 1788144913 | 60° F | 86% | 761.5 mmHg | 0 in | - | 0 W/m² | - |
| 1788144014 | 61° F | 85% | 761.2 mmHg | 0 in | - | 0 W/m² | - |
| 1788143113 | 61° F | 85% | 761.2 mmHg | 0.01 in | - | 0 W/m² | - |
| 1788142212 | 61° F | 85% | 761.2 mmHg | 0.02 in | - | 0 W/m² | - |
| 1788141312 | 61° F | 86% | 761.1 mmHg | 0.03 in | - | 0 W/m² | - |
| 1788140413 | 61° F | 89% | 761.2 mmHg | 0.04 in | - | 0 W/m² | - |
| 1788139512 | 61° F | 90% | 761.1 mmHg | 0.04 in | - | 0 W/m² | - |
| 1788138611 | 61° F | 89% | 761.2 mmHg | 0.06 in | - | 0 W/m² | - |
* Rain latest hour (hover to see other rain measurements)
** Current wind speed in m/s (hover to see current wind gust speed)